Starlink 31474

operational
NORAD ID: 59304 Int'l Des: 2024-056 Owner: SPXS Country: US Constellation: starlink
LEOCIRCULAR

关于 Starlink 31474

正在加载描述...

实时位置

正在加载3D地球...

即将过境

高度历史

Altitude vs Time

uPlot chart will show altitude changes over time

两行轨道根数

1 59304U 24056J 25353.26674716 .00003324 00000-0 13023-3 0 9999
2 59304 42.9986 318.0619 0000810 266.3777 93.6982 15.27583040 98937
Epoch: Dec 19, 2025 • Age: 7 hours

当前状态

高度 482.2 km
速度 7.63 km/s
星下点 7.57°N, 161.36°W
发射日期 Mar 24, 2024
运行时间 1.7 years
类型 internet

技术详情

分类 Payload
质量 730.00 kg
干质量 700.00 kg
总质量 730.00 kg
长度 0.30 m
直径 4.10 m
跨度 29.00 m
形状 Box + pan
制造商 SPXS
平台类型 Starlink V2M
阶段状态 In Orbit
所有者/国家 SPXS/US

大型星座

Loading constellations...